Time,TemperatureF,DewpointF,PressureIn,WindDirection,WindDirectionDegrees,WindSpeedMPH,WindSpeedGustMPH,Humidity,HourlyPrecipIn,Conditions,Clouds,dailyrainin,SoftwareType,DateUTC
2013-03-03 00:00:00,19.0,18.0,29.91,NE,45,4.0,10.0,96,0.00,,,-99.99,Weather View 32 v60,2013-03-03 05:00:00,
2013-03-03 00:05:00,19.0,17.8,29.92,NE,45,7.0,9.0,95,0.00,,,-99.99,Weather View 32 v60,2013-03-03 05:05:00,
2013-03-03 00:10:00,19.0,17.6,29.92,NNE,22,5.0,9.0,94,0.00,,,-99.99,Weather View 32 v60,2013-03-03 05:10:00,
2013-03-03 00:15:00,19.0,17.6,29.92,NE,45,6.0,9.0,94,0.00,,,-99.99,Weather View 32 v60,2013-03-03 05:15:00,
2013-03-03 00:20:00,19.0,17.6,29.92,NNE,22,6.0,9.0,94,0.00,,,-99.99,Weather View 32 v60,2013-03-03 05:20:00,
2013-03-03 00:25:00,19.0,17.6,29.91,NE,45,7.0,9.0,94,0.00,,,-99.99,Weather View 32 v60,2013-03-03 05:25:00,
2013-03-03 00:30:00,19.0,17.6,29.91,NE,45,6.0,9.0,94,0.00,,,-99.99,Weather View 32 v60,2013-03-03 05:30:00,
2013-03-03 00:35:00,19.0,17.6,29.91,NE,45,8.0,10.0,94,0.00,,,-99.99,Weather View 32 v60,2013-03-03 05:35:00,
2013-03-03 00:40:00,19.0,17.6,29.91,NNE,22,6.0,12.0,94,0.00,,,-99.99,Weather View 32 v60,2013-03-03 05:40:00,
2013-03-03 00:45:00,19.0,17.6,29.91,NE,45,6.0,12.0,94,0.00,,,-99.99,Weather View 32 v60,2013-03-03 05:45:00,
2013-03-03 00:50:00,19.0,17.6,29.91,NE,45,9.0,12.0,94,0.00,,,-99.99,Weather View 32 v60,2013-03-03 05:50:00,
2013-03-03 00:55:00,19.0,17.6,29.91,NE,45,7.0,12.0,94,0.00,,,-99.99,Weather View 32 v60,2013-03-03 05:55:00,
2013-03-03 01:00:00,19.0,17.6,29.91,NE,45,8.0,12.0,94,0.00,,,-99.99,Weather View 32 v60,2013-03-03 06:00:00,
2013-03-03 01:05:00,19.0,17.6,29.91,NNE,22,5.0,12.0,94,0.00,,,-99.99,Weather View 32 v60,2013-03-03 06:05:00,
2013-03-03 01:10:00,19.0,17.6,29.91,NNE,22,11.0,12.0,94,0.00,,,-99.99,Weather View 32 v60,2013-03-03 06:10:00,
2013-03-03 01:15:00,19.0,17.6,29.91,NNE,22,7.0,12.0,94,0.00,,,-99.99,Weather View 32 v60,2013-03-03 06:15:00,
2013-03-03 01:20:00,19.0,17.6,29.91,NE,45,7.0,12.0,94,0.00,,,-99.99,Weather View 32 v60,2013-03-03 06:20:00,
2013-03-03 01:25:00,19.0,17.6,29.91,NNE,22,7.0,12.0,94,0.00,,,-99.99,Weather View 32 v60,2013-03-03 06:25:00,
2013-03-03 01:30:00,19.0,17.6,29.91,NE,45,5.0,12.0,94,0.00,,,-99.99,Weather View 32 v60,2013-03-03 06:30:00,
2013-03-03 01:35:00,19.0,17.6,29.91,North,360,6.0,12.0,94,0.00,,,-99.99,Weather View 32 v60,2013-03-03 06:35:00,
2013-03-03 01:40:00,19.0,17.6,29.91,NE,45,8.0,12.0,94,0.00,,,-99.99,Weather View 32 v60,2013-03-03 06:40:00,
2013-03-03 01:45:00,19.0,17.6,29.90,NNE,22,8.0,12.0,94,0.00,,,-99.99,Weather View 32 v60,2013-03-03 06:45:00,
2013-03-03 01:50:00,19.0,17.6,29.90,NE,45,8.0,12.0,94,0.00,,,-99.99,Weather View 32 v60,2013-03-03 06:50:00,
2013-03-03 01:55:00,19.0,17.6,29.90,North,360,5.0,12.0,94,0.00,,,-99.99,Weather View 32 v60,2013-03-03 06:55:00,
2013-03-03 02:00:00,18.0,16.8,29.90,NE,45,6.0,12.0,95,0.00,,,-99.99,Weather View 32 v60,2013-03-03 07:00:00,
2013-03-03 02:05:00,18.0,16.8,29.90,NE,45,6.0,12.0,95,0.00,,,-99.99,Weather View 32 v60,2013-03-03 07:05:00,
2013-03-03 02:10:00,18.0,16.8,29.90,North,360,3.0,11.0,95,0.00,,,-99.99,Weather View 32 v60,2013-03-03 07:10:00,
2013-03-03 02:15:00,18.0,16.8,29.90,NE,45,6.0,12.0,95,0.00,,,-99.99,Weather View 32 v60,2013-03-03 07:15:00,
2013-03-03 02:20:00,18.0,16.8,29.90,North,360,7.0,12.0,95,0.00,,,-99.99,Weather View 32 v60,2013-03-03 07:20:00,
2013-03-03 02:25:00,18.0,17.1,29.89,NNE,22,9.0,12.0,96,0.00,,,-99.99,Weather View 32 v60,2013-03-03 07:25:00,
2013-03-03 02:30:00,18.0,17.1,29.89,NNE,22,6.0,12.0,96,0.00,,,-99.99,Weather View 32 v60,2013-03-03 07:30:00,
2013-03-03 02:35:00,18.0,17.1,29.90,NE,45,4.0,12.0,96,0.00,,,-99.99,Weather View 32 v60,2013-03-03 07:35:00,
2013-03-03 02:40:00,18.0,17.3,29.90,NE,45,7.0,12.0,97,0.00,,,-99.99,Weather View 32 v60,2013-03-03 07:40:00,
2013-03-03 02:45:00,18.0,17.3,29.90,NE,45,4.0,12.0,97,0.00,,,-99.99,Weather View 32 v60,2013-03-03 07:45:00,
2013-03-03 02:50:00,17.0,16.5,29.90,NE,45,4.0,12.0,98,0.00,,,-99.99,Weather View 32 v60,2013-03-03 07:50:00,
2013-03-03 02:55:00,17.0,16.8,29.90,NE,45,3.0,12.0,99,0.00,,,-99.99,Weather View 32 v60,2013-03-03 07:55:00,
2013-03-03 03:00:00,17.0,17.0,29.90,East,90,4.0,12.0,100,0.00,,,-99.99,Weather View 32 v60,2013-03-03 08:00:00,
2013-03-03 03:05:00,17.0,17.0,29.90,East,90,5.0,12.0,100,0.00,,,-99.99,Weather View 32 v60,2013-03-03 08:05:00,
2013-03-03 03:10:00,17.0,17.0,29.90,NE,45,5.0,12.0,100,0.00,,,-99.99,Weather View 32 v60,2013-03-03 08:10:00,
2013-03-03 03:15:00,17.0,17.0,29.90,East,90,5.0,11.0,100,0.00,,,-99.99,Weather View 32 v60,2013-03-03 08:15:00,
2013-03-03 03:20:00,17.0,17.0,29.90,NE,45,6.0,11.0,100,0.00,,,-99.99,Weather View 32 v60,2013-03-03 08:20:00,
2013-03-03 03:25:00,17.0,17.0,29.89,East,90,7.0,11.0,100,0.00,,,-99.99,Weather View 32 v60,2013-03-03 08:25:00,
2013-03-03 03:30:00,16.0,16.0,29.89,ENE,67,4.0,10.0,100,0.00,,,-99.99,Weather View 32 v60,2013-03-03 08:30:00,
2013-03-03 03:35:00,16.0,16.0,29.89,NE,45,7.0,10.0,100,0.00,,,-99.99,Weather View 32 v60,2013-03-03 08:35:00,
2013-03-03 03:40:00,16.0,16.0,29.89,ENE,67,7.0,10.0,100,0.00,,,-99.99,Weather View 32 v60,2013-03-03 08:40:00,
2013-03-03 03:45:00,16.0,16.0,29.89,East,90,4.0,10.0,100,0.00,,,-99.99,Weather View 32 v60,2013-03-03 08:45:00,
2013-03-03 03:50:00,16.0,16.0,29.89,ESE,112,2.0,10.0,100,0.00,,,-99.99,Weather View 32 v60,2013-03-03 08:50:00,
2013-03-03 03:55:00,16.0,16.0,29.90,ENE,67,7.0,10.0,100,0.00,,,-99.99,Weather View 32 v60,2013-03-03 08:55:00,
2013-03-03 04:00:00,16.0,16.0,29.90,NE,45,4.0,10.0,100,0.00,,,-99.99,Weather View 32 v60,2013-03-03 09:00:00,
2013-03-03 04:05:00,16.0,16.0,29.90,East,90,3.0,10.0,100,0.00,,,-99.99,Weather View 32 v60,2013-03-03 09:05:00,
2013-03-03 04:10:00,16.0,16.0,29.90,NE,45,3.0,10.0,100,0.00,,,-99.99,Weather View 32 v60,2013-03-03 09:10:00,
2013-03-03 04:15:00,16.0,16.0,29.90,ENE,67,3.0,10.0,100,0.00,,,-99.99,Weather View 32 v60,2013-03-03 09:15:00,
2013-03-03 04:20:00,16.0,16.0,29.90,NE,45,4.0,10.0,100,0.00,,,-99.99,Weather View 32 v60,2013-03-03 09:20:00,
2013-03-03 04:25:00,16.0,16.0,29.90,NE,45,5.0,10.0,100,0.00,,,-99.99,Weather View 32 v60,2013-03-03 09:25:00,
2013-03-03 04:40:00,16.0,16.0,29.91,NE,45,6.0,10.0,100,0.00,,,-99.99,Weather View 32 v60,2013-03-03 09:40:00,
2013-03-03 04:50:00,16.0,16.0,29.90,East,90,4.0,10.0,100,0.00,,,-99.99,Weather View 32 v60,2013-03-03 09:50:00,
2013-03-03 05:00:00,15.0,15.0,29.91,ENE,67,4.0,13.0,100,0.00,,,-99.99,Weather View 32 v60,2013-03-03 10:00:00,
2013-03-03 05:05:00,15.0,15.0,29.91,East,90,6.0,14.0,100,0.00,,,-99.99,Weather View 32 v60,2013-03-03 10:05:00,
2013-03-03 05:10:00,15.0,15.0,29.91,East,90,8.0,14.0,100,0.00,,,-99.99,Weather View 32 v60,2013-03-03 10:10:00,
2013-03-03 05:15:00,16.0,16.0,29.91,ESE,112,7.0,14.0,100,0.00,,,-99.99,Weather View 32 v60,2013-03-03 10:15:00,
2013-03-03 05:25:00,16.0,16.0,29.91,East,90,12.0,14.0,100,0.00,,,-99.99,Weather View 32 v60,2013-03-03 10:25:00,
2013-03-03 05:30:00,15.0,15.0,29.91,SE,135,4.0,16.0,100,0.00,,,-99.99,Weather View 32 v60,2013-03-03 10:30:00,
2013-03-03 05:35:00,16.0,16.0,29.90,NNE,22,4.0,10.0,100,0.00,,,-99.99,Weather View 32 v60,2013-03-03 10:35:00,
2013-03-03 05:40:00,16.0,16.0,29.91,NE,45,7.0,10.0,100,0.00,,,-99.99,Weather View 32 v60,2013-03-03 10:40:00,
2013-03-03 05:45:00,16.0,16.0,29.91,East,90,9.0,16.0,100,0.00,,,-99.99,Weather View 32 v60,2013-03-03 10:45:00,
2013-03-03 05:50:00,16.0,16.0,29.90,North,360,6.0,10.0,100,0.00,,,-99.99,Weather View 32 v60,2013-03-03 10:50:00,
2013-03-03 05:55:00,15.0,15.0,29.91,ENE,67,10.0,16.0,100,0.00,,,-99.99,Weather View 32 v60,2013-03-03 10:55:00,
2013-03-03 06:00:00,16.0,16.0,29.91,East,90,7.0,10.0,100,0.00,,,-99.99,Weather View 32 v60,2013-03-03 11:00:00,
2013-03-03 06:05:00,15.0,15.0,29.91,East,90,5.0,16.0,100,0.00,,,-99.99,Weather View 32 v60,2013-03-03 11:05:00,
2013-03-03 06:10:00,15.0,15.0,29.91,East,90,7.0,16.0,100,0.00,,,-99.99,Weather View 32 v60,2013-03-03 11:10:00,
2013-03-03 06:20:00,15.0,15.0,29.91,East,90,5.0,16.0,100,0.00,,,-99.99,Weather View 32 v60,2013-03-03 11:20:00,
2013-03-03 06:25:00,16.0,16.0,29.91,East,90,7.0,14.0,100,0.00,,,-99.99,Weather View 32 v60,2013-03-03 11:25:00,
2013-03-03 06:40:00,16.0,15.8,29.92,ESE,112,5.0,16.0,99,0.00,,,-99.99,Weather View 32 v60,2013-03-03 11:40:00,
2013-03-03 06:45:00,15.0,15.0,29.91,NE,45,5.0,16.0,100,0.00,,,-99.99,Weather View 32 v60,2013-03-03 11:45:00,
2013-03-03 06:55:00,17.0,16.1,29.91,ESE,112,10.0,16.0,96,0.00,,,-99.99,Weather View 32 v60,2013-03-03 11:55:00,
2013-03-03 07:00:00,17.0,16.3,29.91,SE,135,5.0,16.0,97,0.00,,,-99.99,Weather View 32 v60,2013-03-03 12:00:00,
2013-03-03 07:05:00,15.0,15.0,29.91,SE,135,6.0,16.0,100,0.00,,,-99.99,Weather View 32 v60,2013-03-03 12:05:00,
2013-03-03 07:10:00,17.0,15.8,29.91,East,90,8.0,16.0,95,0.00,,,-99.99,Weather View 32 v60,2013-03-03 12:10:00,
2013-03-03 07:20:00,15.0,15.0,29.91,East,90,13.0,16.0,100,0.00,,,-99.99,Weather View 32 v60,2013-03-03 12:20:00,
2013-03-03 07:30:00,16.0,15.8,29.91,ENE,67,12.0,16.0,99,0.00,,,-99.99,Weather View 32 v60,2013-03-03 12:30:00,
2013-03-03 07:35:00,16.0,15.8,29.91,ESE,112,6.0,16.0,99,0.00,,,-99.99,Weather View 32 v60,2013-03-03 12:35:00,
2013-03-03 07:40:00,16.0,15.5,29.92,East,90,9.0,16.0,98,0.00,,,-99.99,Weather View 32 v60,2013-03-03 12:40:00,
2013-03-03 07:50:00,16.0,15.5,29.91,East,90,11.0,16.0,98,0.00,,,-99.99,Weather View 32 v60,2013-03-03 12:50:00,
2013-03-03 07:55:00,16.0,15.5,29.91,East,90,6.0,16.0,98,0.00,,,-99.99,Weather View 32 v60,2013-03-03 12:55:00,
2013-03-03 08:00:00,22.0,18.7,29.90,SE,135,4.0,11.0,87,0.00,,,-99.99,Weather View 32 v60,2013-03-03 13:00:00,
2013-03-03 08:05:00,17.0,16.3,29.91,SE,135,5.0,16.0,97,0.00,,,-99.99,Weather View 32 v60,2013-03-03 13:05:00,
2013-03-03 08:10:00,23.0,18.9,29.89,North,360,4.0,11.0,84,0.00,,,-99.99,Weather View 32 v60,2013-03-03 13:10:00,
2013-03-03 08:20:00,17.0,16.1,29.91,East,90,7.0,16.0,96,0.00,,,-99.99,Weather View 32 v60,2013-03-03 13:20:00,
2013-03-03 08:25:00,17.0,16.3,29.91,ESE,112,6.0,12.0,97,0.00,,,-99.99,Weather View 32 v60,2013-03-03 13:25:00,
2013-03-03 08:30:00,17.0,15.8,29.91,East,90,7.0,12.0,95,0.00,,,-99.99,Weather View 32 v60,2013-03-03 13:30:00,
2013-03-03 08:35:00,26.0,17.6,29.88,East,90,7.0,11.0,70,0.00,,,-99.99,Weather View 32 v60,2013-03-03 13:35:00,
2013-03-03 08:40:00,27.0,19.2,29.88,East,90,3.0,11.0,72,0.00,,,-99.99,Weather View 32 v60,2013-03-03 13:40:00,
2013-03-03 08:45:00,28.0,19.5,29.89,SE,135,2.0,11.0,70,0.00,,,-99.99,Weather View 32 v60,2013-03-03 13:45:00,
2013-03-03 08:50:00,20.0,17.5,29.91,SE,135,5.0,12.0,90,0.00,,,-99.99,Weather View 32 v60,2013-03-03 13:50:00,
2013-03-03 08:55:00,20.0,17.0,29.91,East,90,5.0,11.0,88,0.00,,,-99.99,Weather View 32 v60,2013-03-03 13:55:00,
2013-03-03 09:00:00,21.0,17.5,29.90,East,90,5.0,11.0,86,0.00,,,-99.99,Weather View 32 v60,2013-03-03 14:00:00,
2013-03-03 09:05:00,22.0,18.7,29.90,SE,135,4.0,11.0,87,0.00,,,-99.99,Weather View 32 v60,2013-03-03 14:05:00,
2013-03-03 09:10:00,27.0,18.9,29.87,West,270,4.0,15.0,71,0.00,,,-99.99,Weather View 32 v60,2013-03-03 14:10:00,
2013-03-03 09:15:00,27.0,18.2,29.87,WNW,292,5.0,15.0,69,0.00,,,-99.99,Weather View 32 v60,2013-03-03 14:15:00,
2013-03-03 09:20:00,23.0,18.3,29.89,NE,45,1.0,11.0,82,0.00,,,-99.99,Weather View 32 v60,2013-03-03 14:20:00,
2013-03-03 09:25:00,31.0,17.9,29.87,North,360,7.0,15.0,58,0.00,,,-99.99,Weather View 32 v60,2013-03-03 14:25:00,
2013-03-03 09:30:00,32.0,20.1,29.87,NW,315,6.0,15.0,61,0.00,,,-99.99,Weather View 32 v60,2013-03-03 14:30:00,
2013-03-03 09:35:00,31.0,20.2,29.85,NW,315,4.0,15.0,64,0.00,,,-99.99,Weather View 32 v60,2013-03-03 14:35:00,
2013-03-03 09:40:00,29.0,20.8,29.85,NW,315,1.0,15.0,71,0.00,,,-99.99,Weather View 32 v60,2013-03-03 14:40:00,
2013-03-03 09:45:00,30.0,20.4,29.86,North,360,5.0,15.0,67,0.00,,,-99.99,Weather View 32 v60,2013-03-03 14:45:00,
2013-03-03 10:05:00,28.0,20.5,29.86,North,360,7.0,10.0,73,0.00,,,-99.99,Weather View 32 v60,2013-03-03 15:05:00,
2013-03-03 10:10:00,28.0,18.8,29.87,NNE,22,4.0,15.0,68,0.00,,,-99.99,Weather View 32 v60,2013-03-03 15:10:00,
2013-03-03 10:15:00,27.0,20.4,29.85,WNW,292,5.0,10.0,76,0.00,,,-99.99,Weather View 32 v60,2013-03-03 15:15:00,
2013-03-03 10:25:00,30.0,20.7,29.87,NNW,337,2.0,15.0,68,0.00,,,-99.99,Weather View 32 v60,2013-03-03 15:25:00,
2013-03-03 10:35:00,25.0,19.4,29.85,North,360,10.0,12.0,79,0.00,,,-99.99,Weather View 32 v60,2013-03-03 15:35:00,
2013-03-03 10:40:00,25.0,19.4,29.85,North,360,8.0,12.0,79,0.00,,,-99.99,Weather View 32 v60,2013-03-03 15:40:00,
2013-03-03 10:45:00,27.0,21.1,29.85,North,360,6.0,12.0,78,0.00,,,-99.99,Weather View 32 v60,2013-03-03 15:45:00,
2013-03-03 10:55:00,26.0,19.8,29.86,NNW,337,5.0,10.0,77,0.00,,,-99.99,Weather View 32 v60,2013-03-03 15:55:00,
2013-03-03 11:00:00,27.0,19.2,29.86,North,360,8.0,10.0,72,0.00,,,-99.99,Weather View 32 v60,2013-03-03 16:00:00,
2013-03-03 11:05:00,27.0,19.8,29.86,NW,315,4.0,10.0,74,0.00,,,-99.99,Weather View 32 v60,2013-03-03 16:05:00,
2013-03-03 11:10:00,26.0,20.7,29.85,North,360,9.0,12.0,80,0.00,,,-99.99,Weather View 32 v60,2013-03-03 16:10:00,
2013-03-03 11:15:00,26.0,21.0,29.85,North,360,4.0,12.0,81,0.00,,,-99.99,Weather View 32 v60,2013-03-03 16:15:00,
2013-03-03 11:20:00,25.0,20.3,29.85,NNE,22,7.0,14.0,82,0.00,,,-99.99,Weather View 32 v60,2013-03-03 16:20:00,
2013-03-03 11:25:00,29.0,22.4,29.85,North,360,4.0,10.0,76,0.00,,,-99.99,Weather View 32 v60,2013-03-03 16:25:00,
2013-03-03 11:30:00,28.0,21.4,29.85,NNW,337,4.0,10.0,76,0.00,,,-99.99,Weather View 32 v60,2013-03-03 16:30:00,
2013-03-03 11:35:00,27.0,20.8,29.85,North,360,6.0,10.0,77,0.00,,,-99.99,Weather View 32 v60,2013-03-03 16:35:00,
2013-03-03 11:50:00,25.0,20.0,29.84,North,360,17.0,39.0,81,0.00,,,-99.99,Weather View 32 v60,2013-03-03 16:50:00,
2013-03-03 11:55:00,26.0,20.7,29.85,North,360,7.0,12.0,80,0.00,,,-99.99,Weather View 32 v60,2013-03-03 16:55:00,
2013-03-03 12:05:00,25.0,19.4,29.84,North,360,17.0,40.0,79,0.00,,,-99.99,Weather View 32 v60,2013-03-03 17:05:00,
2013-03-03 12:10:00,25.0,20.6,29.84,North,360,10.0,40.0,83,0.00,,,-99.99,Weather View 32 v60,2013-03-03 17:10:00,
2013-03-03 12:11:00,26.0,21.3,29.85,North,360,10.0,12.0,82,0.00,,,-99.99,Weather View 32 v60,2013-03-03 17:11:00,
2013-03-03 12:15:00,25.0,20.0,29.83,NNW,337,13.0,40.0,81,0.00,,,-99.99,Weather View 32 v60,2013-03-03 17:15:00,
2013-03-03 12:20:00,25.0,20.3,29.83,North,360,15.0,40.0,82,0.00,,,-99.99,Weather View 32 v60,2013-03-03 17:20:00,
2013-03-03 12:25:00,25.0,20.6,29.84,North,360,19.0,40.0,83,0.00,,,-99.99,Weather View 32 v60,2013-03-03 17:25:00,
2013-03-03 12:40:00,25.0,20.9,29.84,NW,315,14.0,26.0,84,0.00,,,-99.99,Weather View 32 v60,2013-03-03 17:40:00,
2013-03-03 12:45:00,25.0,19.1,29.84,North,360,17.0,26.0,78,0.00,,,-99.99,Weather View 32 v60,2013-03-03 17:45:00,
2013-03-03 13:05:00,25.0,19.7,29.84,North,360,15.0,40.0,80,0.00,,,-99.99,Weather View 32 v60,2013-03-03 18:05:00,
2013-03-03 13:10:00,25.0,20.6,29.84,NNW,337,16.0,29.0,83,0.00,,,-99.99,Weather View 32 v60,2013-03-03 18:10:00,
2013-03-03 13:15:00,25.0,19.4,29.83,North,360,25.0,29.0,79,0.00,,,-99.99,Weather View 32 v60,2013-03-03 18:15:00,
2013-03-03 13:20:00,25.0,20.0,29.83,North,360,19.0,29.0,81,0.00,,,-99.99,Weather View 32 v60,2013-03-03 18:20:00,
2013-03-03 13:25:00,25.0,19.4,29.83,North,360,13.0,32.0,79,0.00,,,-99.99,Weather View 32 v60,2013-03-03 18:25:00,
2013-03-03 13:35:00,25.0,21.1,29.84,NNW,337,13.0,40.0,85,0.00,,,-99.99,Weather View 32 v60,2013-03-03 18:35:00,
2013-03-03 13:40:00,25.0,20.0,29.83,North,360,22.0,40.0,81,0.00,,,-99.99,Weather View 32 v60,2013-03-03 18:40:00,
2013-03-03 13:45:00,25.0,20.9,29.84,NNW,337,11.0,32.0,84,0.00,,,-99.99,Weather View 32 v60,2013-03-03 18:45:00,
2013-03-03 13:50:00,25.0,20.3,29.84,North,360,17.0,40.0,82,0.00,,,-99.99,Weather View 32 v60,2013-03-03 18:50:00,
2013-03-03 13:55:00,25.0,20.6,29.84,North,360,20.0,40.0,83,0.00,,,-99.99,Weather View 32 v60,2013-03-03 18:55:00,
2013-03-03 14:00:00,25.0,20.0,29.84,North,360,21.0,29.0,81,0.00,,,-99.99,Weather View 32 v60,2013-03-03 19:00:00,
2013-03-03 14:05:00,24.0,19.0,29.84,North,360,19.0,29.0,81,0.00,,,-99.99,Weather View 32 v60,2013-03-03 19:05:00,
2013-03-03 14:10:00,25.0,20.6,29.83,North,360,11.0,32.0,83,0.00,,,-99.99,Weather View 32 v60,2013-03-03 19:10:00,
2013-03-03 14:20:00,25.0,19.7,29.83,NNE,22,15.0,32.0,80,0.00,,,-99.99,Weather View 32 v60,2013-03-03 19:20:00,
2013-03-03 14:25:00,25.0,19.1,29.83,North,360,16.0,30.0,78,0.00,,,-99.99,Weather View 32 v60,2013-03-03 19:25:00,
2013-03-03 14:30:00,25.0,20.0,29.83,North,360,6.0,30.0,81,0.00,,,-99.99,Weather View 32 v60,2013-03-03 19:30:00,
2013-03-03 14:35:00,25.0,20.6,29.83,NE,45,10.0,32.0,83,0.00,,,-99.99,Weather View 32 v60,2013-03-03 19:35:00,
2013-03-03 14:40:00,25.0,20.9,29.84,North,360,20.0,32.0,84,0.00,,,-99.99,Weather View 32 v60,2013-03-03 19:40:00,
2013-03-03 14:45:00,26.0,21.3,29.83,NNW,337,15.0,30.0,82,0.00,,,-99.99,Weather View 32 v60,2013-03-03 19:45:00,
2013-03-03 14:50:00,25.0,20.6,29.83,North,360,16.0,30.0,83,0.00,,,-99.99,Weather View 32 v60,2013-03-03 19:50:00,
2013-03-03 14:55:00,25.0,20.6,29.83,North,360,25.0,29.0,83,0.00,,,-99.99,Weather View 32 v60,2013-03-03 19:55:00,
2013-03-03 15:00:00,25.0,22.0,29.83,North,360,13.0,29.0,88,0.00,,,-99.99,Weather View 32 v60,2013-03-03 20:00:00,
2013-03-03 15:05:00,26.0,22.4,29.83,NW,315,7.0,29.0,86,0.00,,,-99.99,Weather View 32 v60,2013-03-03 20:05:00,
2013-03-03 15:10:00,25.0,21.4,29.83,NNW,337,13.0,29.0,86,0.00,,,-99.99,Weather View 32 v60,2013-03-03 20:10:00,
2013-03-03 15:15:00,25.0,21.4,29.83,North,360,11.0,29.0,86,0.00,,,-99.99,Weather View 32 v60,2013-03-03 20:15:00,
2013-03-03 15:20:00,25.0,19.4,29.83,North,360,23.0,32.0,79,0.00,,,-99.99,Weather View 32 v60,2013-03-03 20:20:00,
2013-03-03 15:25:00,26.0,21.0,29.83,North,360,15.0,29.0,81,0.00,,,-99.99,Weather View 32 v60,2013-03-03 20:25:00,
2013-03-03 15:30:00,26.0,22.1,29.83,North,360,9.0,29.0,85,0.00,,,-99.99,Weather View 32 v60,2013-03-03 20:30:00,
2013-03-03 15:40:00,26.0,21.5,29.82,North,360,13.0,29.0,83,0.00,,,-99.99,Weather View 32 v60,2013-03-03 20:40:00,
2013-03-03 15:45:00,26.0,21.8,29.83,NW,315,20.0,29.0,84,0.00,,,-99.99,Weather View 32 v60,2013-03-03 20:45:00,
2013-03-03 15:50:00,26.0,21.8,29.83,North,360,10.0,29.0,84,0.00,,,-99.99,Weather View 32 v60,2013-03-03 20:50:00,
2013-03-03 15:55:00,26.0,22.1,29.83,NNW,337,22.0,29.0,85,0.00,,,-99.99,Weather View 32 v60,2013-03-03 20:55:00,
2013-03-03 16:00:00,25.0,20.9,29.83,North,360,19.0,29.0,84,0.00,,,-99.99,Weather View 32 v60,2013-03-03 21:00:00,
2013-03-03 16:05:00,26.0,21.8,29.84,NNW,337,11.0,29.0,84,0.00,,,-99.99,Weather View 32 v60,2013-03-03 21:05:00,
2013-03-03 16:15:00,25.0,20.6,29.84,NW,315,10.0,29.0,83,0.00,,,-99.99,Weather View 32 v60,2013-03-03 21:15:00,
2013-03-03 16:20:00,26.0,22.1,29.84,NW,315,13.0,27.0,85,0.00,,,-99.99,Weather View 32 v60,2013-03-03 21:20:00,
2013-03-03 16:25:00,26.0,21.8,29.83,North,360,22.0,27.0,84,0.00,,,-99.99,Weather View 32 v60,2013-03-03 21:25:00,
2013-03-03 16:30:00,25.0,21.1,29.83,North,360,14.0,27.0,85,0.00,,,-99.99,Weather View 32 v60,2013-03-03 21:30:00,
2013-03-03 16:40:00,26.0,21.0,29.82,North,360,15.0,29.0,81,0.00,,,-99.99,Weather View 32 v60,2013-03-03 21:40:00,
2013-03-03 16:45:00,25.0,21.7,29.84,North,360,16.0,27.0,87,0.00,,,-99.99,Weather View 32 v60,2013-03-03 21:45:00,
2013-03-03 16:50:00,25.0,21.4,29.84,NNW,337,14.0,27.0,86,0.00,,,-99.99,Weather View 32 v60,2013-03-03 21:50:00,
2013-03-03 16:55:00,25.0,22.0,29.84,NW,315,9.0,27.0,88,0.00,,,-99.99,Weather View 32 v60,2013-03-03 21:55:00,
2013-03-03 17:00:00,25.0,20.6,29.84,North,360,20.0,27.0,83,0.00,,,-99.99,Weather View 32 v60,2013-03-03 22:00:00,
2013-03-03 17:05:00,25.0,21.4,29.84,North,360,10.0,27.0,86,0.00,,,-99.99,Weather View 32 v60,2013-03-03 22:05:00,
2013-03-03 17:10:00,25.0,21.4,29.84,North,360,24.0,27.0,86,0.00,,,-99.99,Weather View 32 v60,2013-03-03 22:10:00,
2013-03-03 17:15:00,26.0,21.5,29.84,NW,315,11.0,29.0,83,0.00,,,-99.99,Weather View 32 v60,2013-03-03 22:15:00,
2013-03-03 17:20:00,24.0,20.7,29.84,North,360,10.0,30.0,87,0.00,,,-99.99,Weather View 32 v60,2013-03-03 22:20:00,
2013-03-03 17:30:00,24.0,20.4,29.85,North,360,16.0,30.0,86,0.00,,,-99.99,Weather View 32 v60,2013-03-03 22:30:00,
2013-03-03 17:35:00,24.0,19.9,29.85,North,360,14.0,30.0,84,0.00,,,-99.99,Weather View 32 v60,2013-03-03 22:35:00,
2013-03-03 17:40:00,25.0,20.9,29.84,NE,45,11.0,27.0,84,0.00,,,-99.99,Weather View 32 v60,2013-03-03 22:40:00,
2013-03-03 17:45:00,25.0,21.4,29.84,North,360,15.0,27.0,86,0.00,,,-99.99,Weather View 32 v60,2013-03-03 22:45:00,
2013-03-03 17:50:00,24.0,20.4,29.86,North,360,16.0,31.0,86,0.00,,,-99.99,Weather View 32 v60,2013-03-03 22:50:00,
2013-03-03 17:55:00,24.0,20.4,29.86,WNW,292,7.0,31.0,86,0.00,,,-99.99,Weather View 32 v60,2013-03-03 22:55:00,
2013-03-03 18:00:00,24.0,20.4,29.86,North,360,13.0,31.0,86,0.00,,,-99.99,Weather View 32 v60,2013-03-03 23:00:00,
2013-03-03 18:05:00,24.0,20.7,29.86,NW,315,7.0,31.0,87,0.00,,,-99.99,Weather View 32 v60,2013-03-03 23:05:00,
2013-03-03 18:10:00,24.0,21.0,29.86,North,360,12.0,31.0,88,0.00,,,-99.99,Weather View 32 v60,2013-03-03 23:10:00,
2013-03-03 18:20:00,24.0,21.0,29.86,North,360,12.0,31.0,88,0.00,,,-99.99,Weather View 32 v60,2013-03-03 23:20:00,
2013-03-03 18:25:00,24.0,20.7,29.86,NNE,22,13.0,31.0,87,0.00,,,-99.99,Weather View 32 v60,2013-03-03 23:25:00,
2013-03-03 18:30:00,24.0,19.9,29.85,North,360,10.0,30.0,84,0.00,,,-99.99,Weather View 32 v60,2013-03-03 23:30:00,
2013-03-03 18:35:00,24.0,20.4,29.86,North,360,19.0,31.0,86,0.00,,,-99.99,Weather View 32 v60,2013-03-03 23:35:00,
2013-03-03 18:55:00,24.0,20.4,29.87,North,360,9.0,29.0,86,0.00,,,-99.99,Weather View 32 v60,2013-03-03 23:55:00,
2013-03-03 19:00:00,23.0,20.2,29.87,NE,45,12.0,29.0,89,0.00,,,-99.99,Weather View 32 v60,2013-03-04 00:00:00,
2013-03-03 19:05:00,24.0,20.7,29.87,North,360,23.0,29.0,87,0.00,,,-99.99,Weather View 32 v60,2013-03-04 00:05:00,
2013-03-03 19:10:00,24.0,20.7,29.86,NW,315,7.0,31.0,87,0.00,,,-99.99,Weather View 32 v60,2013-03-04 00:10:00,
2013-03-03 19:15:00,24.0,20.1,29.87,NW,315,13.0,29.0,85,0.00,,,-99.99,Weather View 32 v60,2013-03-04 00:15:00,
2013-03-03 19:20:00,24.0,21.0,29.86,North,360,21.0,31.0,88,0.00,,,-99.99,Weather View 32 v60,2013-03-04 00:20:00,
2013-03-03 19:25:00,24.0,20.4,29.87,North,360,17.0,29.0,86,0.00,,,-99.99,Weather View 32 v60,2013-03-04 00:25:00,
2013-03-03 19:30:00,23.0,19.7,29.87,NNE,22,11.0,29.0,87,0.00,,,-99.99,Weather View 32 v60,2013-03-04 00:30:00,
2013-03-03 19:35:00,23.0,19.4,29.87,North,360,15.0,29.0,86,0.00,,,-99.99,Weather View 32 v60,2013-03-04 00:35:00,
2013-03-03 19:40:00,23.0,20.2,29.87,North,360,12.0,29.0,89,0.00,,,-99.99,Weather View 32 v60,2013-03-04 00:40:00,
2013-03-03 19:45:00,24.0,20.1,29.86,North,360,19.0,31.0,85,0.00,,,-99.99,Weather View 32 v60,2013-03-04 00:45:00,
2013-03-03 19:50:00,24.0,20.4,29.87,North,360,19.0,28.0,86,0.00,,,-99.99,Weather View 32 v60,2013-03-04 00:50:00,
2013-03-03 19:55:00,24.0,21.0,29.87,NNW,337,8.0,29.0,88,0.00,,,-99.99,Weather View 32 v60,2013-03-04 00:55:00,
2013-03-03 20:10:00,23.0,19.7,29.88,NE,45,7.0,25.0,87,0.00,,,-99.99,Weather View 32 v60,2013-03-04 01:10:00,
2013-03-03 20:15:00,23.0,19.2,29.87,North,360,19.0,29.0,85,0.00,,,-99.99,Weather View 32 v60,2013-03-04 01:15:00,
2013-03-03 20:20:00,23.0,20.0,29.88,NNE,22,7.0,25.0,88,0.00,,,-99.99,Weather View 32 v60,2013-03-04 01:20:00,
2013-03-03 20:25:00,23.0,20.0,29.88,NE,45,7.0,25.0,88,0.00,,,-99.99,Weather View 32 v60,2013-03-04 01:25:00,
2013-03-03 20:35:00,22.0,19.5,29.89,North,360,6.0,21.0,90,0.00,,,-99.99,Weather View 32 v60,2013-03-04 01:35:00,
2013-03-03 20:40:00,21.0,18.8,29.89,NE,45,5.0,21.0,91,0.00,,,-99.99,Weather View 32 v60,2013-03-04 01:40:00,
2013-03-03 20:45:00,22.0,19.3,29.89,ENE,67,6.0,21.0,89,0.00,,,-99.99,Weather View 32 v60,2013-03-04 01:45:00,
2013-03-03 20:55:00,23.0,19.7,29.88,North,360,8.0,29.0,87,0.00,,,-99.99,Weather View 32 v60,2013-03-04 01:55:00,
2013-03-03 21:00:00,21.0,18.8,29.89,NE,45,7.0,19.0,91,0.00,,,-99.99,Weather View 32 v60,2013-03-04 02:00:00,
2013-03-03 21:05:00,23.0,19.7,29.88,North,360,12.0,29.0,87,0.00,,,-99.99,Weather View 32 v60,2013-03-04 02:05:00,
2013-03-03 21:10:00,23.0,19.7,29.88,NNE,22,12.0,29.0,87,0.00,,,-99.99,Weather View 32 v60,2013-03-04 02:10:00,
2013-03-03 21:15:00,20.0,17.8,29.89,East,90,5.0,20.0,91,0.00,,,-99.99,Weather View 32 v60,2013-03-04 02:15:00,
2013-03-03 21:16:00,23.0,19.7,29.88,NE,45,7.0,25.0,87,0.00,,,-99.99,Weather View 32 v60,2013-03-04 02:16:00,
2013-03-03 21:20:00,20.0,17.8,29.89,East,90,9.0,20.0,91,0.00,,,-99.99,Weather View 32 v60,2013-03-04 02:20:00,
2013-03-03 21:25:00,20.0,17.8,29.89,NE,45,6.0,20.0,91,0.00,,,-99.99,Weather View 32 v60,2013-03-04 02:25:00,
2013-03-03 21:30:00,20.0,18.1,29.89,ENE,67,5.0,20.0,92,0.00,,,-99.99,Weather View 32 v60,2013-03-04 02:30:00,
2013-03-03 21:35:00,22.0,19.3,29.88,NE,45,4.0,21.0,89,0.00,,,-99.99,Weather View 32 v60,2013-03-04 02:35:00,
2013-03-03 21:45:00,20.0,18.1,29.89,NE,45,12.0,20.0,92,0.00,,,-99.99,Weather View 32 v60,2013-03-04 02:45:00,
2013-03-03 21:50:00,20.0,18.1,29.89,NNE,22,7.0,20.0,92,0.00,,,-99.99,Weather View 32 v60,2013-03-04 02:50:00,
2013-03-03 21:55:00,21.0,18.8,29.89,NE,45,7.0,21.0,91,0.00,,,-99.99,Weather View 32 v60,2013-03-04 02:55:00,
2013-03-03 22:00:00,21.0,18.8,29.89,NE,45,5.0,19.0,91,0.00,,,-99.99,Weather View 32 v60,2013-03-04 03:00:00,
2013-03-03 22:10:00,19.0,17.6,29.90,NE,45,8.0,20.0,94,0.00,,,-99.99,Weather View 32 v60,2013-03-04 03:10:00,
2013-03-03 22:15:00,19.0,17.8,29.90,North,360,4.0,20.0,95,0.00,,,-99.99,Weather View 32 v60,2013-03-04 03:15:00,
2013-03-03 22:16:00,20.0,18.1,29.89,East,90,9.0,18.0,92,0.00,,,-99.99,Weather View 32 v60,2013-03-04 03:16:00,
2013-03-03 22:20:00,19.0,17.8,29.90,NNE,22,5.0,15.0,95,0.00,,,-99.99,Weather View 32 v60,2013-03-04 03:20:00,
2013-03-03 22:25:00,19.0,17.6,29.90,NE,45,7.0,13.0,94,0.00,,,-99.99,Weather View 32 v60,2013-03-04 03:25:00,
2013-03-03 22:30:00,19.0,17.6,29.90,North,360,5.0,13.0,94,0.00,,,-99.99,Weather View 32 v60,2013-03-04 03:30:00,
2013-03-03 22:35:00,19.0,17.6,29.91,North,360,6.0,13.0,94,0.00,,,-99.99,Weather View 32 v60,2013-03-04 03:35:00,
2013-03-03 22:40:00,20.0,18.1,29.89,North,360,4.0,20.0,92,0.00,,,-99.99,Weather View 32 v60,2013-03-04 03:40:00,
2013-03-03 22:45:00,20.0,18.1,29.89,NE,45,6.0,20.0,92,0.00,,,-99.99,Weather View 32 v60,2013-03-04 03:45:00,
2013-03-03 22:50:00,19.0,17.6,29.91,North,360,8.0,13.0,94,0.00,,,-99.99,Weather View 32 v60,2013-03-04 03:50:00,
2013-03-03 22:55:00,19.0,17.3,29.91,NNE,22,7.0,13.0,93,0.00,,,-99.99,Weather View 32 v60,2013-03-04 03:55:00,
2013-03-03 23:00:00,19.0,17.3,29.91,NNE,22,3.0,13.0,93,0.00,,,-99.99,Weather View 32 v60,2013-03-04 04:00:00,
2013-03-03 23:05:00,19.0,17.3,29.92,North,360,7.0,13.0,93,0.00,,,-99.99,Weather View 32 v60,2013-03-04 04:05:00,
2013-03-03 23:10:00,19.0,17.6,29.90,NNE,22,5.0,20.0,94,0.00,,,-99.99,Weather View 32 v60,2013-03-04 04:10:00,
2013-03-03 23:15:00,19.0,17.6,29.90,NE,45,8.0,20.0,94,0.00,,,-99.99,Weather View 32 v60,2013-03-04 04:15:00,
2013-03-03 23:20:00,19.0,17.6,29.93,NE,45,7.0,14.0,94,0.00,,,-99.99,Weather View 32 v60,2013-03-04 04:20:00,
2013-03-03 23:25:00,19.0,17.3,29.93,North,360,9.0,14.0,93,0.00,,,-99.99,Weather View 32 v60,2013-03-04 04:25:00,
2013-03-03 23:30:00,19.0,17.3,29.93,NNE,22,9.0,14.0,93,0.00,,,-99.99,Weather View 32 v60,2013-03-04 04:30:00,
2013-03-03 23:35:00,19.0,17.3,29.92,NNE,22,6.0,14.0,93,0.00,,,-99.99,Weather View 32 v60,2013-03-04 04:35:00,
2013-03-03 23:40:00,19.0,17.3,29.92,NE,45,10.0,14.0,93,0.00,,,-99.99,Weather View 32 v60,2013-03-04 04:40:00,
2013-03-03 23:45:00,19.0,17.6,29.92,NE,45,10.0,14.0,94,0.00,,,-99.99,Weather View 32 v60,2013-03-04 04:45:00,
2013-03-03 23:50:00,18.0,16.6,29.92,NNE,22,8.0,14.0,94,0.00,,,-99.99,Weather View 32 v60,2013-03-04 04:50:00,
2013-03-03 23:55:00,18.0,16.6,29.92,NNE,22,4.0,14.0,94,0.00,,,-99.99,Weather View 32 v60,2013-03-04 04:55:00,